SUPERBIRD 8 (43271 NORAD) Tracking and Keplerian Element Data

This shows tracking and keplerian element data for the satellite.

Feedback or suggestion? Click here.




ElementValue
Catalog43271
NameSUPERBIRD 8
Epoch Orbit231
Epoch Day322.39057566
Epoch Year2018
RAAN102.904
Inclination0.0523
Eccentricity0.0001211
Argument of Perigee121.1969
Mean Anonmoly135.9232
Mean Motion1.00271755
Decay Rate-8.4E-07
L11 43271U 18033A 18322.39057566 -.00000084 00000-0 00000+0 0 9991
L22 43271 0.0523 102.9040 0001211 121.1969 135.9232 1.00271755 2318

Live tracking and technical data element details for SUPERBIRD 8 (NORAD 43271). SUPERBIRD 8 can be tracked NOW for your location showing map with azimuth and elevation plus other details from your city location.

Track the satellite on the map from your city or location and see movement details for azimuth, elevation, latitude, longitude, range, height, and movement on the map or in text.







IsCatalogInMostPopularTable: catalog: 43271, numindb: 152
Update: records affected: 1



GetName: 43271 SUPERBIRD 8

Hit Count: updated at: Mon, 19 Nov 2018 11:05:01 GMT